Overview Statistics Trail Chart Weather Telemetry Raw packets
 

This is the latest recevied weather packets stored in our database for station/object YD2CLX-11. If no packets are shown the sender has not sent any weather packets the latest 10 day(s).

<< 51 52 53 54 55 56 57 >>
Time Temp. Humidity Pressure Rain* Wind** Luminosity Snow
1787807482 36.67° C 40% 999.1 hPa - - - -
1787806881 36.11° C 40% 999.4 hPa - - - -
1787806280 36.67° C 40% 999.4 hPa - - - -
1787805680 36.67° C 38% 999.5 hPa - - - -
1787805079 36.11° C 39% 999.7 hPa - - - -
1787804479 36.67° C 38% 999.9 hPa - - - -
1787803878 37.78° C 36% 1000 hPa - - - -
1787803277 36.67° C 37% 1000.3 hPa - - - -
1787802676 35.56° C 37% 1000.6 hPa - - - -
1787802075 36.67° C 37% 1000.8 hPa - - - -
1787801474 35.56° C 40% 1000.9 hPa - - - -
1787800873 36.67° C 39% 1001 hPa - - - -
1787800273 34.44° C 42% 1001.2 hPa - - - -
1787799672 36.67° C 38% 1001.6 hPa - - - -
1787799071 35° C 41% 1001.8 hPa - - - -
1787798470 35.56° C 42% 1001.8 hPa - - - -
1787797869 36.11° C 41% 1001.9 hPa - - - -
1787797269 35° C 43% 1002 hPa - - - -
1787796668 35° C 44% 1002.2 hPa - - - -
1787796067 35° C 45% 1002.4 hPa - - - -
1787795466 35° C 44% 1002.4 hPa - - - -
1787794865 34.44° C 45% 1002.4 hPa - - - -
1787794265 33.33° C 49% 1002.4 hPa - - - -
1787793664 34.44° C 48% 1002.3 hPa - - - -
1787793063 34.44° C 50% 1002.3 hPa - - - -

* Rain since midnight (hover to see other rain measurements)
** Current wind speed in m/s (hover to see current wind gust speed)